Weather Roundup
Issued by NWS Springfield, MO

Home | Current Version | Previous Version | Text Only | Print | Product List | Glossary On
Versions: 1 2 3 4 5 6 7 8 9 10 11 12 13 14 15 16 17 18 19 20 21 22 23 24 25 26 27 28 29 30 31 32 33 34 35 36 37 38 39 40 41 42 43 44 45 46 47 48 49 50
000
NZUS99 KSGF 040707
HRRSGF

HOURLY WEATHER
NATIONAL WEATHER SERVICE SPRINGFIELD MO
200 AM CDT SAT JUL 04 2015

......SGF CWA......

CITY           SKY/WX    TMP DP  RH WIND       PRES   REMARKS
SPRINGFIELD    CLEAR     68  64  87 CALM      29.97R
JOPLIN         PTCLDY    69  67  93 NE5       29.97S
WEST PLAINS    PTCLDY    67  64  90 N3        29.97R
ROLLA          CLEAR     63  61  93 N5        29.96S
OSAGE BEACH    CLEAR     63  61  94 CALM      29.97S

......SURROUNDING SGF CWA......

CITY           SKY/WX    TMP DP  RH WIND       PRES   REMARKS
CHANUTE        PTCLDY    69  65  86 NE3       29.98S
PARSONS        PTCLDY    71  68  90 NE3       29.98R
COFFEYVILLE    CLEAR     70  67  90 NE3       29.96R
EMPORIA        PTCLDY    65  61  87 N3        29.99F
GROVE OK       FOG       70  70 100 CALM      29.96R VSB 1
ROGERS AR      CLOUDY    69  68  96 CALM      29.98R FOG
SILOAM SPRINGS CLEAR     66  63  88 CALM        N/A
HARRISON AR    FOG       68  68 100 NW5       29.97S VSB<1/4
NEAR YELLVILLE CLOUDY    68  64  88 NE3       29.92S VSB 1/4

......KANSAS AND MISSOURI......

CITY           SKY/WX    TMP DP  RH WIND       PRES   REMARKS
KANSAS CTY INT CLEAR     68  58  70 E5        29.99F
DOWNTOWN KC    LGT RAIN  69  60  73 CALM      29.98F
COLUMBIA       CLEAR     66  60  81 NE6       29.97F
SEDALIA        CLEAR     65  62  90 CALM      29.99S
ST JOSEPH      CLEAR     61  59  93 NW3       29.99F
ST LOUIS       CLEAR     72  66  81 N5        29.96S HAZE
SPIRIT OF STL  CLEAR     66  65  96 CALM      29.95S FOG
KIRKSVILLE     CLEAR     58  55  90 CALM      30.00S
WICHITA        CLEAR     71  63  75 E7        29.98F
TOPEKA         PTCLDY    63  61  93 CALM      29.99F FOG
OLATHE         PTCLDY    65  59  81 NE6       29.99S

......TENNESSEE......

CITY           SKY/WX    TMP DP  RH WIND       PRES   REMARKS
MEMPHIS        CLOUDY    73  70  88 SW5       29.91F
NASHVILLE      MOCLDY    70  69  97 S3        29.92F

......ARKANSAS.......

CITY           SKY/WX    TMP DP  RH WIND       PRES   REMARKS
FAYETTEVILLE   CLOUDY    65  65 100 CALM      29.97S FOG
FT SMITH       PTCLDY    72  68  87 CALM      29.93R
LITTLE ROCK    CLOUDY    70  66  87 N5        29.90F

......OKLAHOMA.......

CITY           SKY/WX    TMP DP  RH WIND       PRES   REMARKS
TULSA          PTCLDY    75  71  87 CALM      29.94S
PONCA CITY     CLEAR     71  66  84 E3        29.97R
MCALESTER      MOCLDY    71  69  93 CALM      29.96R
OKLAHOMA CITY  MOCLDY    77  68  73 VRB3      29.96R

......IOWA............

CITY           SKY/WX    TMP DP  RH WIND       PRES   REMARKS
DES MOINES     PTCLDY    64  57  78 CALM      29.98S
QUAD CITIES    CLEAR     60  57  89 CALM      29.97S FOG

......ILLINOIS........

CITY           SKY/WX    TMP DP  RH WIND       PRES   REMARKS
QUINCY         CLEAR     66  60  81 NE3       29.98S
CHICAGO        PTCLDY    62  54  74 CALM      29.95F



USA.gov is the U.S. government's official web portal to all federal, state and local government web resources and services.